Time,TemperatureF,DewpointF,PressureIn,WindDirection,WindDirectionDegrees,WindSpeedMPH,WindSpeedGustMPH,Humidity,HourlyPrecipIn,Conditions,Clouds,dailyrainin,SoftwareType,DateUTC
2013-03-19 00:05:00,28.0,26.3,30.09,North,0,1.1,-999.0,93,-99.99,,,0.00,Acu-Link.com,2013-03-19 04:05:00,
2013-03-19 00:20:00,28.0,26.5,30.08,North,0,1.1,-999.0,94,-99.99,,,0.00,Acu-Link.com,2013-03-19 04:20:00,
2013-03-19 00:35:00,27.9,26.4,30.07,ESE,112,1.6,-999.0,94,-99.99,,,0.00,Acu-Link.com,2013-03-19 04:35:00,
2013-03-19 00:51:00,27.7,26.4,30.05,NNW,337,3.1,-999.0,95,-99.99,,,0.00,Acu-Link.com,2013-03-19 04:51:00,
2013-03-19 01:06:00,27.5,26.3,30.03,NNW,337,1.6,-999.0,95,-99.99,,,0.00,Acu-Link.com,2013-03-19 05:06:00,
2013-03-19 01:21:00,27.5,26.3,30.03,NNW,337,0.0,-999.0,95,-99.99,,,0.00,Acu-Link.com,2013-03-19 05:21:00,
2013-03-19 01:37:00,27.5,26.5,30.02,NNW,337,1.1,-999.0,96,-99.99,,,0.00,Acu-Link.com,2013-03-19 05:37:00,
2013-03-19 01:52:00,27.5,26.5,30.01,NNW,337,4.3,-999.0,96,-99.99,,,0.00,Acu-Link.com,2013-03-19 05:52:00,
2013-03-19 02:07:00,27.3,26.3,30.00,NNW,337,2.7,-999.0,96,-99.99,,,0.00,Acu-Link.com,2013-03-19 06:07:00,
2013-03-19 02:23:00,27.3,26.3,29.99,NNW,337,2.2,-999.0,96,-99.99,,,0.00,Acu-Link.com,2013-03-19 06:23:00,
2013-03-19 02:38:00,27.3,26.3,29.99,NNW,337,3.1,-999.0,96,-99.99,,,0.00,Acu-Link.com,2013-03-19 06:38:00,
2013-03-19 02:53:00,27.3,26.3,29.99,NNW,337,5.1,-999.0,96,-99.99,,,0.00,Acu-Link.com,2013-03-19 06:53:00,
2013-03-19 03:08:00,27.3,26.1,29.97,NNW,337,2.7,-999.0,95,-99.99,,,0.00,Acu-Link.com,2013-03-19 07:08:00,
2013-03-19 03:23:00,27.5,26.3,29.96,NNW,337,2.2,-999.0,95,-99.99,,,0.00,Acu-Link.com,2013-03-19 07:23:00,
2013-03-19 03:39:00,27.5,26.3,29.95,NNW,337,1.6,-999.0,95,-99.99,,,0.00,Acu-Link.com,2013-03-19 07:39:00,
2013-03-19 03:54:00,27.7,26.4,29.93,NNW,337,2.7,-999.0,95,-99.99,,,0.00,Acu-Link.com,2013-03-19 07:54:00,
2013-03-19 04:09:00,27.7,26.4,29.94,NNW,337,1.6,-999.0,95,-99.99,,,0.00,Acu-Link.com,2013-03-19 08:09:00,
2013-03-19 04:24:00,27.7,26.2,29.93,NNW,337,1.6,-999.0,94,-99.99,,,0.00,Acu-Link.com,2013-03-19 08:24:00,
2013-03-19 04:40:00,27.9,26.4,29.93,NNW,337,4.7,-999.0,94,-99.99,,,0.00,Acu-Link.com,2013-03-19 08:40:00,
2013-03-19 04:55:00,28.0,26.3,29.91,NNW,337,3.1,-999.0,93,-99.99,,,0.00,Acu-Link.com,2013-03-19 08:55:00,
2013-03-19 05:10:00,28.2,26.7,29.90,NNW,337,4.3,-999.0,94,-99.99,,,0.00,Acu-Link.com,2013-03-19 09:10:00,
2013-03-19 05:25:00,28.4,26.9,29.90,North,0,2.2,-999.0,94,-99.99,,,0.00,Acu-Link.com,2013-03-19 09:25:00,
2013-03-19 05:41:00,28.6,27.1,29.89,North,0,4.7,-999.0,94,-99.99,,,0.00,Acu-Link.com,2013-03-19 09:41:00,
2013-03-19 06:26:00,29.3,27.0,29.87,North,0,7.8,-999.0,91,-99.99,,,0.00,Acu-Link.com,2013-03-19 10:26:00,
2013-03-19 06:42:00,29.5,27.4,29.85,NNW,337,2.7,-999.0,92,-99.99,,,0.00,Acu-Link.com,2013-03-19 10:42:00,
2013-03-19 06:57:00,29.8,27.8,29.85,North,0,2.7,-999.0,92,-99.99,,,0.00,Acu-Link.com,2013-03-19 10:57:00,
2013-03-19 07:12:00,30.2,27.9,29.84,North,0,3.8,-999.0,91,-99.99,,,0.00,Acu-Link.com,2013-03-19 11:12:00,
2013-03-19 07:31:00,30.6,28.5,29.84,North,0,3.1,-999.0,92,-99.99,,,0.00,Acu-Link.com,2013-03-19 11:31:00,
2013-03-19 07:47:00,30.7,28.7,29.82,North,0,5.8,-999.0,92,-99.99,,,0.00,Acu-Link.com,2013-03-19 11:47:00,
2013-03-19 08:03:00,31.1,28.8,29.82,ENE,67,3.8,-999.0,91,-99.99,,,0.00,Acu-Link.com,2013-03-19 12:03:00,
2013-03-19 08:18:00,31.3,28.7,29.79,North,0,3.8,-999.0,90,-99.99,,,0.00,Acu-Link.com,2013-03-19 12:18:00,
2013-03-19 08:33:00,31.8,29.2,29.79,North,0,11.9,-999.0,90,-99.99,,,0.00,Acu-Link.com,2013-03-19 12:33:00,
2013-03-19 08:48:00,32.2,29.6,29.79,NNW,337,1.1,-999.0,90,-99.99,,,0.00,Acu-Link.com,2013-03-19 12:48:00,
2013-03-19 09:03:00,32.4,29.8,29.79,SSE,157,2.7,-999.0,90,-99.99,,,0.00,Acu-Link.com,2013-03-19 13:03:00,
2013-03-19 09:19:00,32.9,29.7,29.78,ESE,112,3.1,-999.0,88,-99.99,,,0.00,Acu-Link.com,2013-03-19 13:19:00,
2013-03-19 09:34:00,32.7,29.8,29.77,North,0,3.1,-999.0,89,-99.99,,,0.00,Acu-Link.com,2013-03-19 13:34:00,
2013-03-19 09:49:00,33.3,30.4,29.77,NNW,337,7.4,-999.0,89,-99.99,,,0.00,Acu-Link.com,2013-03-19 13:49:00,
2013-03-19 10:04:00,33.4,30.6,29.77,North,0,2.7,-999.0,89,-99.99,,,0.00,Acu-Link.com,2013-03-19 14:04:00,
2013-03-19 10:19:00,33.4,30.8,29.77,North,0,1.6,-999.0,90,-99.99,,,0.00,Acu-Link.com,2013-03-19 14:19:00,
2013-03-19 10:34:00,34.3,31.4,29.74,SSE,157,7.4,-999.0,89,-99.99,,,0.00,Acu-Link.com,2013-03-19 14:34:00,
2013-03-19 10:50:00,34.5,31.6,29.72,NW,315,3.8,-999.0,89,-99.99,,,0.00,Acu-Link.com,2013-03-19 14:50:00,
2013-03-19 11:05:00,34.9,32.3,29.69,North,0,3.1,-999.0,90,-99.99,,,0.00,Acu-Link.com,2013-03-19 15:05:00,
2013-03-19 11:20:00,34.9,32.0,29.70,NW,315,5.8,-999.0,89,-99.99,,,0.00,Acu-Link.com,2013-03-19 15:20:00,
2013-03-19 11:35:00,35.1,32.2,29.69,NNW,337,5.8,-999.0,89,-99.99,,,0.00,Acu-Link.com,2013-03-19 15:35:00,
2013-03-19 11:51:00,35.4,32.2,29.69,SE,135,8.3,-999.0,88,-99.99,,,0.00,Acu-Link.com,2013-03-19 15:51:00,
2013-03-19 12:21:00,35.6,32.7,29.66,North,0,11.4,-999.0,89,-99.99,,,0.00,Acu-Link.com,2013-03-19 16:21:00,
2013-03-19 12:37:00,35.6,32.7,29.63,East,90,5.1,-999.0,89,-99.99,,,0.00,Acu-Link.com,2013-03-19 16:37:00,
2013-03-19 13:07:00,34.7,32.6,29.69,NNW,337,2.2,-999.0,92,-99.99,,,0.00,Acu-Link.com,2013-03-19 17:07:00,
2013-03-19 13:22:00,34.2,32.6,29.69,NNW,337,1.6,-999.0,94,-99.99,,,0.01,Acu-Link.com,2013-03-19 17:22:00,
2013-03-19 13:38:00,33.3,32.2,29.71,NNW,337,2.2,-999.0,96,-99.99,,,0.05,Acu-Link.com,2013-03-19 17:38:00,
2013-03-19 13:53:00,33.3,32.5,29.67,NNW,337,5.1,-999.0,97,-99.99,,,0.05,Acu-Link.com,2013-03-19 17:53:00,
2013-03-19 14:08:00,33.4,32.7,29.65,NNW,337,3.1,-999.0,97,-99.99,,,0.05,Acu-Link.com,2013-03-19 18:08:00,
2013-03-19 14:23:00,33.6,32.9,29.66,North,0,3.8,-999.0,97,-99.99,,,0.05,Acu-Link.com,2013-03-19 18:23:00,
2013-03-19 14:54:00,33.6,32.6,29.57,SE,135,2.2,-999.0,96,-99.99,,,0.08,Acu-Link.com,2013-03-19 18:54:00,
2013-03-19 15:09:00,34.5,32.7,29.56,NNW,337,8.3,-999.0,93,-99.99,,,0.11,Acu-Link.com,2013-03-19 19:09:00,
2013-03-19 15:24:00,35.1,33.0,29.57,North,0,2.7,-999.0,92,-99.99,,,0.19,Acu-Link.com,2013-03-19 19:24:00,
2013-03-19 15:40:00,36.1,32.9,29.58,North,0,2.7,-999.0,88,-99.99,,,0.21,Acu-Link.com,2013-03-19 19:40:00,
2013-03-19 15:55:00,36.0,33.0,29.58,East,90,2.7,-999.0,89,-99.99,,,0.24,Acu-Link.com,2013-03-19 19:55:00,
2013-03-19 16:10:00,35.8,32.9,29.58,North,0,1.6,-999.0,89,-99.99,,,0.26,Acu-Link.com,2013-03-19 20:10:00,
2013-03-19 16:25:00,36.0,33.3,29.58,North,0,2.2,-999.0,90,-99.99,,,0.28,Acu-Link.com,2013-03-19 20:25:00,
2013-03-19 16:40:00,35.6,33.2,29.57,North,0,0.0,-999.0,91,-99.99,,,0.30,Acu-Link.com,2013-03-19 20:40:00,
2013-03-19 16:56:00,35.6,33.0,29.57,North,0,0.0,-999.0,90,-99.99,,,0.31,Acu-Link.com,2013-03-19 20:56:00,
2013-03-19 17:11:00,35.2,32.9,29.57,North,0,1.6,-999.0,91,-99.99,,,0.32,Acu-Link.com,2013-03-19 21:11:00,
2013-03-19 17:26:00,34.9,33.1,29.59,North,0,0.0,-999.0,93,-99.99,,,0.34,Acu-Link.com,2013-03-19 21:26:00,
2013-03-19 17:42:00,34.2,32.6,29.58,North,0,0.0,-999.0,94,-99.99,,,0.35,Acu-Link.com,2013-03-19 21:42:00,
2013-03-19 17:57:00,33.8,32.5,29.59,North,0,0.0,-999.0,95,-99.99,,,0.35,Acu-Link.com,2013-03-19 21:57:00,